156P/Russell-LINEAR (2020)

Japanese version
Home page
Updated on August 15, 2020

---------------------------------------------------------------------

* Profile

* Orbital Elements

Epoch 2020 Nov. 7.0 TT = JDT 2459160.5
T 2020 Nov. 17.87306 TT                                 Rudenko
q   1.3330158            (2000.0)            P               Q
n   0.15314459     Peri.    0.42751     +0.81128908     -0.55883982
a   3.4599376      Node    35.36949     +0.53551688     +0.59242143
e   0.6147284      Incl.   17.26316     +0.23458837     +0.58028864
P   6.44
From 154 observations 1986 Sept. 3-2020 July 31, mean residual 0".7.

* Finding Charts

* Magnitudes Graph

        m1 = 16.8 + 5 log d + 5.0 log r

---------------------------------------------------------------------

The orbital elements are published on M.P.E.C. 2020-P19.
The charts are made with StellaNavigator Ver.10 (AstroArts).
The magnitudes graphs are made with Comet for Windows.

---------------------------------------------------------------------

Copyright(C) Seiichi Yoshida (comet@aerith.net). All rights reserved.